Wind_Speed
18 19 18 16 16 17 16 14 12 12 12 11 9 9 10 10 11 13 14 13 13 12 10 9 9 9 8 9 9 10 12 13 12 12 12 12 11 12 12 11 10 11 12 11 10 10 8 7 9 10 8 6 5 5 4 4 5 4 3 3 2 3 2 2 3 3 1 0 1 1 3 2 1 1 2 4 6 6 4 7 10 11 10 12 16
15 15 14 14 15 14 15 15 14 14 14 11 8 9 10 10 11 12 13 12 11 10 10 10 9 9 9 9 9 10 11 13 12 11 12 14 15 14 11 9 10 11 11 10 8 9 8 6 7 8 7 7 6 3 3 4 2 2 2 1 1 2 1 1 2 1 1 1 1 2 2 3 0 4 5 5 6 4 4 7 8 6 6 9 13
11 11 11 12 12 11 12 13 14 15 16 14 12 12 11 10 10 11 11 11 11 10 11 11 11 10 10 10 10 10 11 12 12 11 12 14 15 14 12 9 10 10 9 8 7 8 8 6 6 7 8 8 7 3 4 5 3 2 4 2 1 1 1 1 1 1 1 1 1 3 3 4 2 3 5 7 9 8 4 6 6 6 7 7 10
11 10 9 10 10 10 11 12 13 15 16 16 14 14 13 11 10 11 11 10 11 11 11 11 12 12 12 12 12 12 12 13 13 12 12 12 11 12 12 10 10 9 8 7 6 6 7 6 5 6 7 7 6 3 4 6 3 2 4 3 2 2 1 1 1 0 1 1 2 2 3 5 4 3 4 8 11 11 7 7 7 7 9 11 11
10 10 9 9 9 10 11 12 13 14 14 14 12 14 16 14 11 11 11 11 11 11 11 11 12 13 13 12 13 13 13 15 14 13 14 14 12 12 11 10 10 9 8 8 7 6 6 6 5 5 6 6 5 4 4 6 4 3 4 4 4 4 2 1 2 2 3 3 4 4 4 5 5 5 7 8 10 11 9 9 9 10 13 16 15
9 9 9 9 9 9 10 11 11 12 13 12 12 14 16 15 13 12 12 11 12 12 12 11 11 12 12 12 12 12 13 14 14 13 15 15 14 12 10 9 9 9 8 8 7 7 7 6 6 6 6 6 6 5 5 6 5 4 5 6 5 4 4 3 3 4 4 5 5 5 6 6 6 6 7 9 10 10 10 10 10 12 15 16 16
9 8 8 8 9 9 10 10 11 11 12 12 12 13 14 14 14 13 12 12 12 12 12 12 12 12 12 13 13 13 13 13 13 13 13 13 12 11 10 10 9 8 8 7 7 7 7 8 8 8 9 8 8 7 7 7 7 6 7 7 5 3 4 5 5 5 5 5 6 6 6 7 8 7 7 8 9 10 11 11 12 14 16 15 16
8 8 8 8 8 9 9 10 10 11 12 11 11 11 12 13 13 14 13 13 13 13 13 13 14 13 14 14 14 15 15 15 15 15 14 14 13 11 11 11 9 8 9 8 8 9 9 9 10 9 10 10 10 10 9 10 10 9 8 8 7 6 6 6 6 7 8 7 7 8 8 9 9 9 9 9 10 11 11 12 14 17 17 16 17
7 6 6 5 6 7 8 9 10 10 10 10 10 11 12 13 13 14 14 14 15 14 14 14 14 14 15 15 16 16 17 17 17 17 17 16 14 14 13 12 10 9 8 8 11 12 11 11 11 10 12 15 15 14 13 13 13 11 9 9 9 9 9 8 8 8 9 9 10 10 10 11 10 10 10 9 11 13 13 13 16 17 18 19 19
5 4 3 3 3 4 6 7 8 8 9 10 10 11 12 13 14 15 14 15 16 16 15 15 15 16 16 16 17 18 19 20 19 19 19 19 18 19 19 17 14 13 11 10 12 13 11 12 13 13 14 16 17 17 15 15 16 15 13 13 12 12 11 11 10 11 11 12 12 12 11 12 12 11 11 11 13 13 13 13 15 18 19 20 20
5 5 4 2 1 2 3 4 6 7 8 10 10 11 13 14 15 15 15 15 16 16 16 16 17 18 18 18 19 22 23 23 21 20 22 22 22 21 22 21 18 15 13 11 11 11 11 10 10 11 12 14 15 16 16 15 16 17 17 17 17 17 16 14 12 11 12 14 13 12 12 13 12 11 12 13 12 12 13 14 16 18 19 20 22
7 6 5 3 2 0 1 2 3 5 7 9 11 12 14 15 15 15 16 17 17 18 19 19 19 20 20 20 22 25 27 26 23 22 23 24 23 22 23 23 21 18 18 15 12 12 12 10 8 8 10 13 13 13 14 14 16 17 17 17 18 20 21 20 16 14 13 12 11 11 12 13 12 11 12 13 13 16 19 19 17 17 18 20 21
8 8 6 5 4 2 1 1 2 3 5 7 9 11 13 14 15 16 17 17 18 19 21 22 22 23 23 23 22 24 27 28 25 24 24 24 24 24 24 24 23 23 23 20 18 17 15 14 11 10 13 16 15 12 11 12 13 15 16 17 18 19 20 20 20 19 18 14 9 7 9 10 9 10 15 16 17 20 22 20 18 19 22 23 25
8 8 8 7 6 5 4 3 3 3 4 5 6 9 11 12 14 15 16 17 18 19 20 21 23 25 26 26 25 24 26 28 27 25 24 24 24 25 26 24 23 23 23 24 25 23 18 17 14 12 14 15 12 9 9 11 11 10 12 15 16 17 17 18 19 20 21 20 16 11 11 13 12 13 18 20 21 22 23 22 24 26 29 32 34
7 7 7 7 7 6 6 5 4 4 4 4 6 8 9 11 13 14 16 17 18 21 22 22 23 26 29 31 30 28 27 27 27 26 26 25 25 26 27 25 23 20 20 23 25 22 19 17 14 14 14 12 9 8 9 10 10 9 11 13 14 15 17 17 18 19 20 21 19 17 18 18 17 18 21 21 22 23 25 26 28 30 31 31 29
7 6 6 6 6 6 6 6 6 5 5 5 6 8 9 11 12 13 15 16 17 20 23 23 24 25 27 29 29 29 28 27 27 29 28 27 27 27 25 25 24 21 19 20 18 16 15 13 11 13 14 11 9 9 9 10 10 10 12 13 14 14 15 14 15 15 17 18 18 18 19 20 20 21 22 22 22 24 25 27 29 28 25 23 22
5 5 5 5 5 6 6 6 6 6 6 6 7 8 9 11 12 12 13 14 16 18 21 22 22 22 24 25 26 29 31 29 29 30 29 28 29 27 24 24 23 21 18 16 15 16 15 12 11 13 13 10 9 9 8 9 9 10 12 13 13 13 12 11 11 12 13 15 16 18 19 20 21 22 23 23 24 25 27 28 28 26 22 21 22
5 6 7 7 7 7 7 7 7 7 7 7 8 9 9 11 12 12 13 14 16 18 20 22 21 20 21 23 26 28 29 27 27 27 26 28 29 26 24 23 21 20 18 17 17 17 15 14 14 14 11 10 9 7 7 7 7 8 10 10 9 10 10 10 10 11 13 15 17 19 20 21 22 23 24 25 25 26 26 25 25 24 22 20 20
8 9 9 10 10 10 10 10 10 10 9 9 8 9 10 11 12 13 14 15 16 17 19 21 21 20 21 23 25 26 25 25 25 24 23 25 28 27 25 23 22 21 20 19 18 17 15 15 15 12 10 9 7 6 6 6 7 7 7 6 5 7 9 10 10 11 13 15 18 20 22 24 25 25 26 25 23 22 22 21 21 20 18 17 17
12 13 14 14 13 12 11 11 12 14 15 15 14 13 12 12 12 13 14 15 16 17 18 19 20 21 22 24 27 27 25 25 26 25 23 25 30 29 24 23 25 22 19 19 19 18 16 15 14 12 10 8 6 6 6 7 9 8 7 8 8 9 11 12 12 12 14 15 18 20 21 22 21 21 21 21 20 19 19 21 20 17 15 18 19
18 19 20 19 18 16 15 15 16 19 21 21 21 19 17 14 13 14 14 15 16 18 19 20 21 21 21 22 25 27 26 25 26 26 23 25 31 30 25 24 24 22 20 18 18 18 16 15 14 11 9 7 6 6 6 8 9 9 9 10 13 14 14 14 14 14 15 15 15 15 14 14 13 13 13 16 19 19 18 19 19 15 15 19 21
20 21 21 22 22 22 23 23 23 25 25 25 24 24 22 20 18 16 16 17 17 19 20 20 20 21 20 22 23 24 24 25 26 26 24 26 32 34 30 25 21 21 20 18 16 17 16 14 13 11 8 7 6 5 5 6 8 9 9 11 13 14 15 14 12 11 10 10 10 9 10 10 11 11 12 13 15 16 15 17 19 20 20 20 20
19 20 21 23 25 26 27 27 27 27 27 27 28 27 25 23 20 18 18 18 19 20 20 19 20 21 22 24 25 23 22 24 24 24 24 27 32 34 30 24 21 20 18 17 18 17 15 12 11 10 8 6 4 3 3 4 6 7 8 9 11 12 13 12 10 8 7 7 8 10 10 10 10 11 11 11 13 18 21 22 22 22 21 19 18
19 20 22 23 24 25 25 25 25 24 23 24 25 27 27 26 23 21 19 19 19 20 20 19 20 21 21 21 23 24 25 25 21 20 23 28 33 32 25 21 22 21 17 17 20 17 13 10 10 8 6 4 3 2 3 4 5 7 8 8 9 9 8 7 7 7 7 8 9 9 9 9 10 10 11 14 17 19 20 19 19 18 19 19 19
18 20 20 21 23 24 25 25 24 22 22 22 22 24 25 25 24 23 22 21 21 21 21 21 20 20 19 17 17 22 27 28 23 20 24 30 33 29 22 18 20 20 18 19 20 17 12 10 8 6 5 3 2 2 3 5 6 6 7 7 7 6 4 4 4 6 7 7 7 8 8 9 10 10 13 17 19 18 17 17 18 18 19 20 19
17 18 18 19 20 21 22 22 22 21 21 22 22 23 24 24 24 24 23 23 22 22 22 23 22 21 20 18 16 17 22 25 23 21 23 27 29 27 23 20 20 21 20 20 19 14 11 10 7 5 5 3 2 3 4 5 5 6 6 6 4 3 4 5 6 6 6 6 7 8 8 9 11 13 15 16 15 15 16 18 18 17 16 16 17
18 19 19 19 19 19 19 20 21 21 22 22 22 23 23 24 25 26 26 26 25 24 24 25 24 22 21 22 20 16 17 21 21 22 26 29 29 28 28 25 24 24 23 19 17 13 11 9 7 6 5 3 3 4 5 4 5 5 4 4 4 5 7 8 8 7 6 5 6 7 9 12 13 14 14 12 12 14 16 15 16 16 15 15 16
19 20 20 20 20 20 20 20 21 22 22 21 22 23 23 23 24 25 26 26 26 26 25 26 27 24 22 22 20 17 19 23 26 29 32 33 32 31 30 28 27 27 25 20 17 14 11 10 9 7 5 4 4 4 4 3 3 3 2 3 5 7 7 7 7 6 3 4 7 10 12 14 13 11 11 12 13 14 14 14 15 15 14 14 15
20 20 19 19 19 19 20 20 20 21 21 21 21 22 23 24 24 24 24 24 27 28 25 22 22 21 20 21 20 20 22 27 31 33 32 32 33 33 32 31 29 27 25 21 17 15 13 11 10 8 6 5 4 3 4 5 4 3 3 4 3 3 4 4 3 3 4 8 12 13 13 12 11 11 12 13 14 14 14 14 14 13 14 14 15
19 18 17 17 17 17 18 19 19 20 21 21 22 22 23 25 26 27 26 25 26 28 26 22 19 17 17 20 24 25 25 27 31 34 33 32 33 33 32 32 31 28 25 21 17 15 14 13 11 9 7 6 6 8 8 6 4 3 5 4 3 4 5 4 2 4 8 12 13 11 10 10 10 11 12 13 13 13 13 13 13 13 14 14 14
17 16 15 15 15 15 16 17 17 18 20 20 21 23 24 24 25 28 29 29 28 27 27 26 23 19 17 17 23 29 29 26 28 34 35 34 35 34 34 33 30 26 22 20 18 16 14 13 12 10 8 8 9 11 9 6 5 5 4 4 3 4 4 3 4 7 10 10 9 8 9 10 11 12 13 13 13 13 13 13 13 13 13 13 15
15 15 15 16 17 17 18 18 18 18 18 19 21 22 23 23 23 24 26 29 30 30 30 30 30 29 27 22 20 21 21 19 21 30 36 37 36 35 34 30 26 22 20 19 17 15 13 13 12 12 11 11 11 10 8 6 6 6 4 3 2 1 2 4 7 9 10 9 8 7 8 10 11 12 13 13 13 13 13 13 13 12 13 14 15
16 18 19 20 21 22 22 21 20 19 18 18 19 20 21 22 23 22 23 24 27 29 30 31 32 34 35 33 29 23 16 12 12 18 28 34 34 32 31 27 22 21 20 17 14 14 13 13 13 12 11 11 11 10 8 7 6 6 5 4 3 2 2 5 6 7 7 8 8 7 8 10 11 12 13 13 13 14 13 13 13 13 14 14 15
19 21 22 23 23 24 24 23 23 22 20 19 18 19 20 20 21 22 22 23 23 23 24 25 27 30 32 32 32 27 21 16 11 8 14 23 28 28 27 24 21 20 19 17 15 15 14 13 12 11 10 11 11 9 7 6 6 5 5 4 2 2 2 4 4 4 6 8 7 6 8 10 11 12 13 13 13 13 12 13 13 13 14 15 16
20 21 22 22 22 22 23 24 24 23 22 20 19 19 19 19 20 21 22 22 21 19 18 19 22 26 27 25 24 22 21 22 21 15 13 17 23 24 23 23 23 21 18 14 13 14 13 12 12 11 10 11 10 8 6 7 6 4 4 3 2 3 3 3 3 5 7 7 5 6 9 10 10 11 12 13 13 13 13 13 13 14 15 17 17
17 18 19 19 19 20 22 24 24 24 22 20 20 19 18 18 20 20 21 22 21 18 16 16 19 23 24 22 20 21 23 26 29 27 24 21 23 24 25 25 25 21 16 11 11 12 13 12 12 11 10 10 9 7 6 7 5 4 4 4 2 3 4 3 3 5 8 7 4 7 10 10 10 11 12 13 13 13 13 14 14 15 16 17 18
15 16 17 19 21 22 22 24 25 25 22 19 19 19 18 18 19 20 20 20 19 17 15 15 17 20 22 22 21 23 26 28 30 33 31 27 24 26 27 27 23 18 14 12 13 14 14 13 11 11 10 9 8 7 6 6 4 4 6 5 4 5 6 4 4 7 9 8 5 7 9 10 10 11 12 13 14 13 13 14 14 16 17 17 18
14 15 17 20 23 23 22 22 24 24 21 19 17 17 16 16 17 19 19 19 18 18 17 14 14 16 19 22 23 23 25 26 28 30 31 28 27 28 29 26 21 18 16 16 15 15 14 12 11 11 10 9 8 6 5 5 4 4 5 5 5 6 5 4 5 8 9 8 6 7 9 10 11 12 12 13 13 12 12 13 14 16 16 16 16
13 14 18 21 21 20 19 18 17 18 19 17 15 13 13 15 16 18 18 16 15 17 15 10 10 12 14 17 20 22 25 28 30 30 31 30 30 30 28 24 20 18 18 17 16 15 13 12 11 11 10 8 7 6 5 5 5 5 6 5 5 4 3 2 3 4 6 7 7 7 9 12 13 14 13 11 11 11 13 15 17 17 17 17 17
13 14 18 20 19 18 16 13 10 12 13 13 11 10 11 13 14 15 14 12 11 12 11 6 9 9 8 7 9 13 20 27 31 32 32 33 32 30 26 22 20 20 19 18 16 14 13 12 12 11 9 8 7 6 5 5 5 5 5 5 4 3 2 1 1 3 6 7 7 8 11 14 16 15 12 10 10 12 14 16 16 17 18 18 18
13 16 17 16 15 13 11 8 5 7 9 9 9 9 10 10 12 13 11 8 8 9 7 3 5 7 6 4 4 5 10 18 25 27 28 30 28 25 22 21 21 21 20 19 16 14 13 12 12 11 9 8 8 6 5 6 5 5 4 4 3 3 1 1 2 5 7 8 9 10 13 17 17 14 11 10 11 12 14 15 15 16 17 18 18
15 15 14 13 11 10 8 7 6 6 6 6 7 8 8 7 9 10 8 6 7 7 5 4 5 7 7 6 6 8 9 12 18 21 24 25 23 21 21 22 22 21 20 18 16 15 13 12 12 11 9 8 7 6 6 6 5 3 3 3 4 4 2 1 3 6 7 8 10 12 15 18 18 14 10 10 11 12 13 15 16 16 17 18 18
15 13 12 11 10 10 9 7 6 7 6 4 4 6 5 4 6 9 7 5 4 6 6 6 7 8 8 8 9 10 11 11 14 21 28 29 26 24 24 23 21 19 18 16 14 13 12 10 11 11 10 10 9 8 6 5 5 4 3 3 4 5 4 4 5 6 7 8 10 12 14 17 17 14 10 10 11 12 13 15 16 16 17 18 18
12 11 11 10 9 10 10 8 7 7 4 2 2 2 2 2 3 5 5 5 6 7 5 5 6 7 9 11 12 11 12 15 21 26 28 25 24 22 21 19 18 18 16 15 13 12 12 12 12 11 10 10 12 12 10 7 6 6 6 5 4 5 5 5 6 6 6 7 9 11 13 16 17 14 10 10 11 13 14 15 17 17 18 19 18
12 11 10 9 9 10 9 9 10 9 6 4 3 1 1 1 2 2 5 7 7 6 5 4 6 9 11 12 14 16 21 27 31 28 23 20 20 20 17 16 16 16 15 13 12 13 14 13 12 11 9 9 10 11 11 10 9 7 5 4 4 5 5 5 6 6 6 7 9 11 12 15 17 15 12 10 11 14 15 16 17 18 19 19 18
13 12 8 7 9 10 10 8 8 7 6 6 4 2 1 3 4 6 7 7 6 6 6 7 10 12 12 13 17 22 27 29 29 26 22 20 18 17 17 17 17 16 15 14 13 13 14 13 11 10 10 9 9 9 6 6 6 4 3 3 3 4 4 5 5 6 6 7 8 10 12 14 16 16 12 10 11 14 16 16 17 18 18 18 17
12 11 8 7 7 9 9 9 8 8 7 7 7 6 4 4 7 8 8 8 7 6 7 10 12 14 15 17 20 23 24 24 24 24 23 20 16 15 17 17 15 15 16 15 14 13 12 12 13 13 12 11 11 11 8 5 3 3 3 2 2 3 4 4 4 5 5 6 8 10 11 13 15 15 13 11 12 14 16 16 16 16 17 17 17
10 10 8 7 7 7 8 10 11 10 8 6 8 9 10 10 9 8 8 9 11 11 11 12 13 15 18 20 21 22 22 21 22 23 21 17 14 14 16 15 12 12 14 17 17 14 10 8 11 14 13 11 11 11 9 7 5 4 2 0 2 3 4 4 3 4 5 6 7 9 10 11 14 15 13 12 13 15 15 15 16 16 17 17 17
10 9 8 7 6 6 7 7 9 11 10 7 5 6 9 10 10 9 9 10 11 11 12 12 13 17 21 22 21 21 20 19 19 19 17 15 14 14 14 13 12 12 13 15 16 13 9 7 8 9 10 11 11 9 7 6 5 3 1 1 3 4 5 5 5 5 5 6 7 9 10 11 13 14 13 11 12 14 14 15 16 17 17 17 17
10 10 10 10 10 10 8 6 6 8 10 11 9 7 8 11 12 12 12 12 11 12 12 12 13 18 21 20 20 20 19 19 19 18 16 15 15 14 12 12 12 12 12 11 10 9 8 7 7 8 9 10 10 7 6 6 5 3 2 2 3 5 6 6 7 7 7 8 9 10 11 12 13 14 12 10 12 13 14 15 17 17 16 16 17
9 9 10 11 14 16 15 12 10 10 9 10 11 11 10 11 13 13 13 13 12 12 12 14 16 19 19 19 19 20 20 20 19 16 13 12 11 11 11 10 10 10 9 8 7 7 6 5 6 7 9 10 9 7 6 6 5 4 2 2 3 4 5 7 8 8 9 10 10 10 11 13 15 15 12 10 11 12 13 15 17 17 15 15 15
Wind_Direction
224 227 231 233 231 226 222 220 214 200 187 176 172 178 179 178 178 175 173 174 168 157 151 155 153 146 145 148 151 155 155 148 141 137 135 134 135 136 131 126 130 136 136 133 129 124 117 120 135 131 116 116 123 116 119 119 111 104 98 99 99 90 95 122 122 127 186 286 117 241 312 23 68 304 299 305 329 353 341 319 338 1 355 329 323
225 226 227 231 234 228 221 222 217 206 200 195 203 211 196 180 177 175 172 166 158 157 159 157 154 154 150 149 150 151 149 144 137 136 144 149 147 138 127 127 138 142 139 136 140 143 135 134 151 153 146 143 144 145 152 152 155 153 141 115 114 109 74 118 145 150 230 339 169 236 317 25 296 290 307 319 341 348 304 314 337 347 331 317 315
213 213 212 219 225 215 210 214 212 210 213 215 220 221 202 180 175 178 178 167 158 163 168 164 161 163 159 157 156 152 152 150 143 144 153 154 153 147 139 141 147 145 141 140 152 161 152 151 174 185 181 166 157 164 176 186 212 176 163 177 156 132 70 148 184 151 167 262 285 231 282 344 338 301 305 316 339 353 323 301 308 312 317 321 317
195 198 201 205 203 195 195 202 203 208 219 224 224 218 208 194 183 182 184 179 172 171 174 174 172 171 168 167 164 162 166 164 153 150 155 152 154 158 155 154 152 147 148 151 159 172 166 164 181 194 193 179 173 189 191 195 213 165 172 194 186 177 147 140 167 29 154 253 316 277 292 329 332 322 307 307 325 338 334 315 311 307 308 315 317
182 184 189 193 192 189 190 197 204 209 214 217 219 217 213 208 201 194 188 186 185 182 180 181 183 184 182 180 179 178 179 177 168 167 170 165 163 167 165 163 162 158 162 167 170 177 178 179 189 197 196 188 185 197 197 197 205 195 194 204 202 202 203 181 216 260 256 258 285 298 309 312 303 312 322 314 315 321 323 319 314 310 313 320 323
176 181 186 189 189 192 197 199 200 205 209 210 214 218 217 211 206 203 196 193 194 191 188 187 190 195 195 192 193 191 189 187 183 182 184 179 175 173 170 172 174 172 177 182 184 190 193 195 200 205 208 204 199 200 205 206 206 209 216 219 220 215 213 219 228 243 258 262 265 279 294 290 281 295 311 312 311 314 317 316 310 310 315 316 313
168 172 179 190 195 201 208 205 196 198 207 210 213 218 217 208 203 203 202 201 201 199 197 196 195 197 200 198 197 195 193 192 190 188 186 184 180 177 177 178 179 182 187 190 198 208 212 214 215 218 220 221 220 216 219 224 220 221 226 226 229 232 223 230 242 246 254 266 269 274 283 283 280 285 295 303 305 304 310 314 310 311 315 312 309
158 161 167 180 191 195 203 207 200 200 208 211 211 212 211 208 208 210 210 209 209 207 206 205 203 200 201 201 199 197 193 190 192 191 187 185 183 183 186 185 185 196 199 197 207 214 217 223 227 232 234 234 235 229 227 235 237 235 239 239 238 241 240 237 246 255 258 264 270 275 282 282 278 282 291 295 299 305 311 313 311 311 314 316 314
147 151 156 169 184 190 202 210 205 205 214 216 212 211 211 212 215 217 218 218 218 217 214 213 211 208 207 204 201 199 195 193 197 199 194 190 185 182 183 182 183 196 201 208 220 221 222 226 228 234 240 239 238 236 232 234 238 237 238 243 241 240 242 241 247 261 264 265 272 275 278 278 274 283 296 296 295 302 306 307 308 310 314 317 315
120 119 130 169 192 191 204 214 211 210 216 218 219 223 224 222 222 223 224 226 226 225 224 220 217 214 213 209 205 202 200 203 210 211 204 200 198 196 194 189 187 193 201 213 225 229 233 240 239 236 239 243 243 245 245 243 245 245 239 239 239 236 237 243 251 260 260 264 273 275 275 278 277 283 294 295 294 295 296 301 305 307 312 316 313
96 96 102 117 161 188 202 212 215 217 221 223 225 231 236 236 235 233 231 229 228 228 227 224 221 219 217 212 210 212 216 224 231 230 223 220 223 223 216 208 203 205 217 226 232 234 237 251 259 248 246 255 253 248 249 251 252 253 250 247 245 243 245 251 254 253 256 266 274 272 272 276 276 279 287 290 288 281 280 293 304 306 307 308 305
83 83 80 73 66 76 208 206 216 221 228 235 238 240 243 244 242 241 238 236 235 232 229 227 224 225 224 219 217 225 233 239 241 238 233 231 234 236 233 232 232 232 235 239 241 240 237 241 258 256 251 259 260 254 253 253 251 253 256 255 253 252 255 259 256 244 240 253 269 273 275 276 275 276 275 273 276 281 286 293 301 302 302 303 301
70 68 62 51 45 31 2 312 260 237 231 239 243 244 246 247 245 244 243 242 239 235 235 236 235 233 232 227 223 228 237 241 240 238 237 234 233 233 237 244 247 242 240 244 245 244 241 237 241 249 249 251 258 260 256 253 253 253 254 256 258 260 262 265 262 251 238 234 244 270 274 265 261 262 260 265 280 292 295 296 296 295 297 299 298
65 59 52 42 37 29 14 344 303 276 252 248 246 243 247 250 250 247 245 243 240 236 237 238 237 236 235 233 227 226 234 241 239 233 233 236 235 235 237 241 245 245 245 248 248 245 243 242 239 239 243 246 250 246 240 249 261 263 259 259 259 261 262 263 261 255 247 240 240 247 252 247 249 261 269 280 291 294 294 294 293 295 297 299 301
54 49 43 35 29 23 14 357 333 307 283 267 259 258 259 258 255 252 248 245 244 244 243 240 240 242 242 242 238 232 233 238 236 232 235 238 237 238 238 239 241 240 236 241 244 242 240 239 232 227 234 241 243 237 236 250 263 267 265 265 263 263 265 265 263 259 255 249 245 248 254 258 265 275 282 289 293 293 294 295 296 299 302 303 305
38 35 28 19 12 11 4 351 340 327 308 290 277 272 270 268 266 260 254 250 247 247 246 245 246 246 244 244 242 236 232 233 235 239 240 234 233 237 236 232 232 230 226 229 232 227 225 221 215 225 234 233 232 235 239 250 260 264 266 267 267 269 271 271 266 259 256 255 253 255 262 268 274 280 286 290 291 293 295 296 298 302 302 300 297
17 12 0 353 349 349 344 336 329 322 314 306 295 283 275 274 273 265 257 254 251 249 249 248 247 245 242 241 238 237 237 237 239 242 238 234 237 238 227 217 218 218 215 209 205 208 212 205 206 222 229 225 225 230 234 244 253 258 262 264 267 268 266 261 256 252 251 253 255 259 266 273 278 282 286 288 291 294 295 296 298 299 297 294 293
343 337 329 326 325 322 318 315 311 308 307 306 300 291 284 279 275 268 259 253 252 253 253 252 251 249 246 242 241 242 245 244 241 239 237 235 232 219 204 200 201 201 196 190 197 209 211 208 215 223 222 220 223 226 230 231 229 240 253 259 261 263 260 255 251 252 254 256 260 266 271 276 280 284 287 289 292 294 294 293 293 295 295 294 294
311 312 310 308 306 306 305 301 298 294 291 292 293 292 290 286 279 271 263 256 254 254 254 255 254 251 248 247 248 249 249 247 243 237 231 224 210 195 190 192 192 191 188 188 200 210 205 205 215 219 216 216 214 215 224 212 197 211 233 235 234 249 255 257 258 259 262 267 271 274 276 279 283 287 290 292 295 296 296 297 298 302 300 296 296
299 297 294 292 293 298 299 296 292 288 284 283 285 284 285 288 285 277 268 262 258 256 255 257 256 253 251 253 254 253 251 247 242 235 227 214 200 191 189 191 192 189 184 188 201 205 202 204 210 209 208 210 203 203 208 197 191 199 211 216 221 230 240 252 264 268 271 277 281 284 289 293 297 300 303 309 313 313 310 307 305 305 298 295 298
296 294 293 291 289 286 283 282 282 281 279 280 282 280 278 278 280 280 274 266 262 259 258 256 256 256 256 256 257 257 254 248 240 235 228 215 204 197 191 189 193 188 179 181 193 198 198 201 202 201 200 199 197 199 200 201 209 219 224 225 226 231 242 257 271 277 281 288 293 295 299 302 302 301 302 308 311 311 309 307 305 300 291 291 294
293 294 293 291 288 284 281 280 280 279 278 278 277 276 275 273 272 273 272 269 265 262 260 257 256 256 254 253 255 255 253 251 246 239 231 215 203 198 193 189 189 186 178 172 175 189 196 195 192 194 193 193 197 199 202 211 223 234 239 237 237 243 251 262 274 284 289 294 295 291 290 292 292 288 289 294 296 291 285 281 278 273 272 278 283
295 291 288 286 285 285 284 282 282 281 279 277 275 273 272 271 269 268 268 267 264 262 262 257 253 250 248 251 253 249 246 250 249 242 232 217 202 195 192 187 183 185 184 171 168 183 195 187 184 189 189 192 200 203 220 232 235 242 248 251 254 257 261 268 277 283 284 283 284 287 290 291 289 289 292 291 283 277 277 278 280 284 290 293 292
305 298 294 290 286 283 281 280 280 279 278 276 274 272 270 268 267 265 264 264 261 259 258 254 250 249 248 252 253 247 243 246 247 240 231 217 203 195 190 181 178 183 183 172 175 191 197 183 182 191 190 195 210 221 245 253 256 265 266 264 267 268 270 277 281 280 283 288 292 294 293 291 293 293 288 283 286 295 305 310 309 306 298 288 284
312 307 303 299 293 288 284 280 277 276 276 273 271 270 268 267 264 261 260 260 259 256 254 250 246 246 245 245 246 246 248 251 251 242 224 207 195 190 186 179 178 181 180 179 188 199 196 183 186 194 193 205 230 249 269 273 274 275 271 269 275 275 267 266 269 277 288 294 293 293 293 293 295 292 285 289 304 322 327 315 303 295 287 279 281
311 307 306 304 300 298 294 288 283 278 274 271 270 268 265 261 259 257 256 256 256 254 252 248 245 243 241 238 235 239 249 253 248 233 211 196 188 187 188 189 189 187 187 193 200 201 190 186 194 197 200 222 258 263 270 274 271 268 268 271 269 247 253 268 272 274 283 289 291 296 298 295 292 293 294 302 315 318 304 294 295 298 297 294 293
306 304 303 301 300 298 296 294 290 283 275 271 269 267 263 260 258 255 252 251 252 252 251 249 248 243 236 236 237 235 238 239 227 203 187 182 183 186 190 196 199 197 196 201 205 201 194 195 197 198 207 226 243 248 255 260 261 266 272 267 256 255 267 279 284 285 285 291 296 296 295 296 299 302 305 306 307 304 298 298 300 299 297 298 297
300 299 297 295 295 294 292 292 292 288 283 276 271 267 264 261 258 254 252 249 248 250 252 253 254 248 235 231 229 218 215 218 207 191 184 183 184 187 193 199 203 203 203 206 204 200 197 197 194 194 203 217 228 242 247 237 236 236 213 226 264 291 303 310 320 326 309 288 297 301 303 306 308 309 309 307 305 307 308 305 302 299 298 298 296
299 296 294 291 290 289 289 290 289 288 287 283 278 271 264 260 258 256 255 253 248 246 247 248 250 246 236 230 222 208 205 208 201 193 191 190 188 189 194 199 203 204 205 207 204 198 196 196 194 193 195 198 197 187 179 183 201 237 244 236 240 272 301 320 341 330 287 290 305 311 312 313 311 308 308 308 305 304 305 303 302 301 299 296 294
298 294 291 289 289 287 287 288 286 285 285 284 283 279 270 262 257 251 250 251 247 241 239 243 247 246 240 235 225 212 205 204 202 199 197 194 194 197 199 200 202 203 203 202 200 198 197 193 189 189 185 173 166 168 175 181 194 245 275 280 238 236 267 289 283 278 294 309 322 323 315 310 310 310 309 306 302 302 303 303 303 302 300 298 297
296 293 290 287 287 287 286 285 284 284 285 284 285 285 279 272 265 256 250 248 246 241 239 241 246 250 249 238 221 210 205 204 207 207 203 198 199 203 204 202 203 203 199 195 195 196 195 188 182 177 169 163 168 175 180 182 180 196 243 280 269 268 294 298 275 292 312 325 328 319 313 313 313 311 309 307 306 306 305 303 303 302 299 299 298
290 290 289 287 287 289 288 286 282 279 279 281 283 285 283 277 273 268 260 252 248 247 246 244 243 248 250 243 226 212 202 197 202 207 205 203 203 205 205 204 203 199 193 191 191 191 187 181 176 172 166 167 177 184 188 196 203 206 210 215 215 240 277 273 286 309 327 333 328 319 315 315 312 308 308 308 307 307 307 307 307 305 301 301 301
293 295 296 296 296 295 293 290 287 282 279 277 277 282 284 279 274 271 268 261 253 252 253 251 247 248 251 250 247 242 228 211 203 201 200 200 201 203 203 201 197 190 186 183 181 180 178 175 174 176 173 173 184 197 201 206 218 217 202 195 202 224 257 277 300 321 327 326 330 327 315 311 312 309 310 311 309 308 309 309 308 307 305 304 302
306 304 303 303 301 298 295 290 286 283 279 275 272 275 279 280 277 271 267 264 259 257 258 255 247 243 247 250 250 245 237 228 225 210 195 197 199 198 193 191 188 184 179 173 172 177 182 180 177 179 177 175 188 205 207 203 210 207 193 192 192 205 255 280 294 307 314 321 328 320 311 312 314 312 312 313 312 311 313 313 311 310 308 305 304
314 312 310 308 305 302 300 296 292 287 280 272 269 271 274 277 277 273 266 262 259 256 255 252 244 239 239 242 242 234 221 213 213 214 205 198 198 195 189 184 182 180 177 176 178 183 187 185 180 178 175 178 193 209 203 192 194 188 180 188 196 213 247 273 279 302 327 345 346 318 314 316 315 316 316 316 316 316 316 314 311 309 307 305 304
310 309 306 302 298 297 296 296 297 295 285 274 266 265 267 271 274 274 270 263 255 251 250 247 240 234 232 234 233 225 213 207 210 216 215 205 199 199 196 189 185 184 184 186 188 186 186 185 180 174 171 175 185 192 184 175 174 183 194 194 190 221 241 252 273 313 347 11 358 318 319 321 319 322 322 319 319 319 316 312 311 309 307 305 305
305 304 300 295 293 293 289 287 289 290 286 280 271 264 264 269 272 274 274 266 255 249 246 236 227 225 225 226 226 221 212 208 211 217 222 220 210 204 200 196 194 194 190 186 186 186 182 178 173 168 167 168 166 165 166 164 171 213 226 217 206 226 241 262 301 331 1 19 355 319 323 325 323 326 326 323 322 319 314 312 312 309 307 306 307
309 307 303 300 300 300 295 287 282 278 276 280 278 270 266 267 268 270 273 269 256 247 240 225 215 219 221 220 221 219 212 207 206 209 214 214 206 199 200 202 203 200 189 183 185 184 176 169 166 164 162 159 156 161 174 175 182 217 231 222 222 240 261 309 337 343 356 3 344 324 326 328 328 330 328 324 321 316 313 316 320 319 316 315 313
321 314 312 314 316 317 311 298 280 266 267 277 283 276 270 269 267 267 269 266 251 244 239 214 191 206 221 223 223 218 208 200 197 196 197 198 196 197 200 199 194 189 184 181 183 180 170 164 164 160 157 158 164 174 186 188 194 215 224 221 227 244 270 338 351 336 336 339 336 330 331 333 332 329 326 322 317 316 321 329 333 331 324 317 314
330 326 327 330 333 332 325 312 282 259 266 282 287 276 270 271 268 265 267 262 241 238 243 208 169 187 215 219 215 215 209 203 199 195 192 192 193 194 193 185 177 176 177 178 177 173 166 163 160 156 156 166 171 175 184 189 198 217 224 222 223 229 241 314 310 301 320 337 343 336 333 334 331 326 325 326 323 325 331 332 329 325 321 318 317
334 335 339 341 342 340 338 332 304 270 274 287 287 275 270 269 263 260 263 255 226 223 238 216 176 197 217 198 179 198 207 210 213 208 196 186 182 180 177 172 168 167 168 168 166 161 158 158 155 151 155 165 165 167 181 191 198 213 218 214 217 218 206 10 313 298 318 339 343 336 338 342 341 336 332 332 330 329 329 326 323 322 323 322 320
337 343 347 347 344 343 344 347 340 314 296 291 286 276 267 262 259 255 251 232 205 196 193 190 200 216 222 212 198 190 190 209 223 213 188 171 167 167 166 165 163 160 160 159 158 159 162 162 153 149 156 164 162 167 188 194 191 196 204 209 221 219 190 186 279 291 315 336 339 339 345 351 351 346 337 332 331 329 328 328 328 328 325 323 322
342 346 350 353 353 349 346 344 334 315 296 279 281 279 260 241 246 242 228 201 168 158 170 202 223 223 213 197 184 181 188 204 204 185 168 162 165 166 162 159 159 162 164 163 164 168 169 158 144 145 156 163 162 166 179 182 177 181 189 200 224 234 229 238 268 288 313 331 337 342 349 352 353 348 338 331 333 334 333 333 331 328 325 325 324
346 347 349 359 5 1 357 1 359 344 320 258 262 272 224 199 234 224 185 132 115 127 157 208 219 197 184 179 171 167 169 168 163 159 156 158 161 160 156 156 162 164 163 163 166 165 154 143 146 155 160 166 172 175 175 172 177 193 204 209 226 247 256 265 279 293 308 322 334 344 349 351 351 348 339 335 339 339 335 333 331 330 329 328 325
345 345 348 4 18 18 15 14 15 17 24 26 6 340 189 204 229 168 119 109 121 139 157 185 180 169 168 167 158 152 152 151 149 148 147 147 147 146 144 146 152 153 151 153 158 151 142 145 160 166 157 156 169 180 191 203 206 207 215 225 241 261 274 282 289 296 305 320 334 342 346 348 350 348 343 342 344 340 336 335 334 333 331 329 327
351 351 2 22 31 33 30 21 14 18 24 22 18 12 192 169 144 123 108 109 128 146 157 162 160 157 156 151 148 151 153 151 148 146 144 141 144 150 151 146 144 146 146 143 142 143 144 149 158 161 162 171 174 170 182 211 216 211 228 248 260 283 297 299 298 300 308 322 333 339 343 347 349 351 350 349 344 340 338 339 336 332 331 333 335
2 5 22 42 40 34 32 32 35 39 42 52 65 69 71 96 108 107 106 109 113 122 141 151 151 151 148 143 142 149 153 149 146 146 146 143 146 155 156 154 155 157 150 138 134 142 152 159 166 174 185 193 186 171 164 168 182 202 234 256 292 320 324 320 311 308 319 331 335 339 344 347 349 354 360 358 348 342 340 339 336 333 336 342 343
16 14 27 45 44 34 34 41 49 50 50 66 89 92 88 85 85 91 104 106 103 108 119 126 134 147 151 146 144 150 155 155 155 155 152 146 143 145 147 151 155 154 149 146 146 147 147 155 172 185 192 190 180 177 177 180 185 198 215 263 3 359 358 356 345 339 344 344 341 344 348 349 353 1 7 1 348 341 339 339 338 338 343 347 346
29 26 31 42 44 39 39 48 54 53 50 56 88 124 127 114 97 94 103 103 102 113 120 118 128 149 156 154 152 154 156 157 160 160 154 147 145 146 148 147 139 133 144 160 170 175 172 159 158 170 178 176 174 177 183 187 189 190 168 77 34 24 25 27 27 24 16 7 2 3 1 357 358 4 6 356 344 340 341 342 341 340 344 347 346
35 35 38 45 52 53 55 65 70 62 59 61 67 93 129 128 115 112 115 111 105 111 116 116 131 151 158 157 155 154 152 151 153 155 152 150 152 152 151 148 143 144 155 169 178 182 182 171 160 159 164 169 174 180 185 186 183 170 134 82 45 38 41 46 48 46 38 33 28 21 14 9 7 5 2 352 342 342 347 348 345 343 345 347 345
40 40 40 47 55 58 61 68 75 75 75 72 68 74 96 113 117 121 124 117 107 104 109 118 131 143 147 145 146 150 151 150 149 148 148 153 161 164 163 162 164 166 163 156 147 145 150 157 169 175 174 174 181 189 190 183 173 158 137 92 55 51 52 53 52 48 41 38 34 25 21 19 13 7 4 357 347 347 352 353 347 345 346 345 343
Height
1518 1520 1522 1523 1525 1526 1528 1529 1530 1531 1533 1534 1534 1536 1536 1536 1537 1537 1537 1538 1539 1539 1540 1541 1542 1542 1543 1543 1543 1543 1544 1544 1545 1545 1546 1547 1548 1549 1550 1552 1553 1553 1554 1555 1556 1557 1558 1559 1560 1560 1562 1563 1563 1564 1565 1565 1565 1566 1567 1567 1567 1567 1568 1568 1569 1569 1569 1568 1569 1569 1568 1568 1568 1569 1568 1566 1565 1565 1565 1565 1564 1563 1562 1561 1560
1518 1519 1521 1523 1524 1526 1527 1528 1529 1531 1532 1533 1534 1536 1537 1537 1537 1538 1538 1539 1540 1541 1541 1542 1543 1544 1544 1544 1544 1544 1545 1545 1546 1546 1547 1547 1548 1550 1551 1553 1553 1554 1555 1556 1557 1558 1559 1560 1561 1561 1562 1563 1564 1565 1565 1565 1566 1566 1567 1567 1568 1568 1568 1569 1569 1569 1569 1569 1569 1569 1568 1568 1569 1569 1567 1567 1566 1566 1567 1566 1565 1565 1565 1564 1561
1518 1519 1521 1522 1523 1525 1526 1527 1529 1530 1531 1533 1534 1535 1536 1537 1538 1538 1539 1540 1541 1541 1542 1542 1543 1544 1545 1545 1545 1545 1545 1545 1546 1547 1547 1548 1549 1550 1551 1552 1553 1554 1555 1557 1557 1558 1559 1560 1561 1561 1562 1562 1563 1564 1565 1565 1566 1566 1566 1567 1568 1568 1568 1568 1568 1569 1569 1569 1569 1569 1569 1568 1568 1569 1568 1567 1566 1567 1567 1567 1567 1566 1566 1565 1564
1519 1519 1520 1522 1523 1524 1526 1527 1528 1529 1530 1532 1534 1535 1536 1537 1538 1539 1539 1540 1541 1541 1541 1542 1543 1544 1544 1544 1544 1545 1545 1545 1546 1547 1548 1549 1550 1550 1551 1552 1553 1554 1556 1557 1558 1558 1559 1560 1561 1561 1562 1562 1563 1564 1564 1565 1565 1565 1566 1567 1567 1567 1567 1568 1568 1569 1569 1569 1569 1569 1569 1568 1569 1569 1569 1568 1567 1566 1567 1567 1566 1566 1565 1564 1564
1519 1520 1521 1522 1522 1523 1525 1526 1528 1529 1530 1532 1533 1534 1535 1537 1538 1539 1539 1540 1541 1541 1542 1542 1543 1543 1543 1544 1544 1544 1544 1545 1545 1546 1547 1548 1549 1550 1551 1552 1553 1554 1556 1557 1558 1558 1559 1560 1561 1561 1562 1562 1563 1564 1564 1564 1565 1565 1566 1566 1567 1566 1567 1568 1568 1568 1569 1569 1569 1569 1569 1569 1569 1569 1569 1569 1568 1567 1566 1566 1566 1566 1565 1563 1562
1519 1520 1521 1521 1522 1524 1524 1525 1526 1528 1530 1532 1533 1533 1534 1536 1538 1539 1539 1540 1540 1541 1542 1543 1543 1543 1543 1544 1544 1544 1545 1545 1545 1546 1547 1548 1548 1550 1551 1552 1553 1554 1555 1556 1557 1558 1559 1560 1561 1562 1562 1562 1563 1563 1564 1564 1564 1565 1565 1566 1566 1565 1565 1567 1567 1567 1568 1568 1568 1568 1568 1568 1568 1568 1568 1568 1568 1567 1566 1566 1566 1565 1564 1562 1561
1519 1520 1521 1521 1522 1523 1524 1524 1526 1528 1530 1531 1532 1532 1533 1535 1537 1538 1539 1540 1540 1541 1542 1542 1543 1543 1543 1544 1544 1545 1545 1545 1546 1546 1547 1548 1549 1550 1550 1552 1553 1554 1555 1556 1557 1558 1559 1560 1561 1561 1562 1562 1562 1562 1563 1563 1563 1564 1564 1565 1565 1565 1565 1566 1566 1567 1567 1567 1568 1568 1568 1567 1567 1567 1567 1567 1567 1566 1566 1565 1564 1564 1563 1562 1561
1519 1520 1521 1522 1523 1523 1524 1524 1526 1527 1529 1530 1531 1532 1533 1534 1536 1537 1538 1539 1539 1540 1541 1541 1542 1542 1543 1543 1544 1544 1545 1545 1545 1546 1547 1547 1548 1549 1550 1551 1552 1553 1554 1555 1556 1557 1558 1559 1560 1561 1561 1561 1561 1561 1562 1562 1562 1563 1563 1564 1564 1565 1565 1565 1565 1565 1566 1566 1567 1567 1567 1567 1566 1566 1566 1566 1566 1565 1565 1563 1563 1563 1562 1560 1559
1519 1520 1521 1522 1522 1523 1524 1524 1525 1527 1528 1529 1530 1531 1532 1533 1534 1535 1536 1537 1538 1539 1540 1541 1541 1541 1542 1542 1543 1543 1543 1544 1544 1545 1546 1547 1547 1548 1549 1550 1551 1552 1553 1554 1555 1555 1556 1557 1558 1559 1560 1560 1560 1560 1560 1561 1561 1561 1562 1563 1563 1564 1564 1564 1564 1565 1565 1565 1565 1565 1565 1565 1565 1565 1565 1564 1565 1564 1563 1563 1562 1562 1561 1559 1558
1519 1520 1521 1522 1522 1523 1524 1524 1525 1526 1527 1529 1530 1530 1531 1531 1532 1533 1535 1536 1537 1538 1538 1539 1539 1540 1541 1541 1542 1542 1542 1542 1543 1544 1545 1545 1545 1545 1546 1547 1549 1550 1551 1552 1553 1554 1555 1556 1556 1557 1558 1558 1559 1559 1559 1559 1559 1560 1561 1561 1561 1562 1562 1562 1563 1563 1564 1563 1563 1563 1564 1564 1564 1564 1564 1563 1563 1563 1562 1562 1561 1560 1559 1557 1556
1520 1521 1522 1523 1523 1524 1524 1525 1525 1526 1527 1528 1529 1529 1530 1530 1530 1531 1533 1534 1535 1535 1536 1537 1537 1538 1539 1539 1539 1539 1539 1540 1541 1542 1543 1543 1544 1544 1545 1545 1547 1548 1549 1550 1552 1553 1554 1554 1555 1556 1557 1557 1557 1557 1556 1557 1557 1558 1558 1559 1559 1560 1560 1560 1561 1562 1562 1562 1562 1562 1562 1562 1562 1562 1563 1562 1562 1561 1560 1560 1559 1558 1557 1556 1554
1521 1522 1522 1523 1524 1524 1525 1525 1526 1526 1527 1527 1527 1528 1528 1529 1529 1530 1530 1531 1532 1533 1533 1534 1535 1535 1536 1537 1537 1536 1536 1537 1539 1540 1540 1541 1542 1544 1544 1545 1546 1548 1548 1549 1551 1552 1552 1552 1553 1554 1555 1555 1554 1554 1554 1554 1555 1555 1556 1556 1557 1557 1557 1558 1559 1559 1560 1560 1560 1560 1560 1560 1560 1560 1560 1560 1560 1559 1558 1558 1557 1556 1555 1553 1552
1521 1522 1522 1523 1523 1524 1524 1525 1526 1526 1527 1527 1527 1527 1527 1527 1527 1528 1528 1529 1530 1530 1531 1531 1532 1533 1533 1534 1534 1534 1533 1534 1536 1537 1538 1539 1540 1542 1543 1543 1544 1546 1547 1548 1549 1549 1549 1550 1551 1552 1552 1552 1552 1552 1552 1552 1552 1553 1553 1554 1554 1555 1555 1556 1556 1556 1557 1557 1558 1558 1558 1558 1558 1558 1557 1557 1558 1557 1556 1555 1555 1554 1552 1551 1549
1522 1522 1523 1523 1523 1523 1524 1525 1525 1526 1526 1526 1526 1526 1526 1526 1526 1526 1526 1527 1527 1527 1527 1528 1529 1530 1530 1530 1531 1532 1531 1531 1533 1535 1535 1536 1538 1539 1540 1541 1542 1543 1544 1545 1545 1546 1547 1548 1550 1550 1549 1549 1550 1550 1550 1550 1550 1550 1551 1551 1552 1552 1552 1553 1553 1554 1554 1555 1555 1556 1555 1555 1556 1555 1555 1555 1555 1554 1554 1553 1552 1550 1549 1547 1545
1522 1522 1523 1524 1523 1524 1524 1524 1524 1524 1525 1525 1525 1525 1525 1525 1524 1524 1524 1524 1524 1524 1524 1525 1525 1526 1526 1527 1527 1528 1528 1528 1529 1531 1532 1533 1534 1535 1536 1538 1539 1541 1542 1541 1542 1544 1545 1546 1547 1547 1547 1547 1548 1548 1549 1548 1548 1549 1549 1549 1549 1549 1550 1550 1550 1551 1551 1552 1553 1553 1553 1553 1554 1553 1553 1553 1552 1552 1551 1550 1548 1547 1545 1543 1542
1522 1522 1523 1524 1524 1524 1524 1524 1524 1524 1524 1524 1524 1524 1524 1523 1523 1523 1522 1522 1522 1522 1521 1521 1521 1522 1523 1523 1523 1524 1524 1524 1525 1527 1528 1529 1530 1530 1532 1535 1537 1538 1539 1539 1540 1541 1542 1543 1544 1544 1545 1546 1546 1547 1547 1547 1547 1547 1547 1547 1547 1547 1548 1548 1548 1549 1549 1550 1551 1551 1551 1551 1552 1551 1551 1550 1550 1549 1548 1547 1546 1544 1543 1542 1540
1522 1523 1524 1523 1523 1523 1523 1523 1524 1523 1523 1523 1523 1522 1522 1522 1521 1521 1521 1521 1520 1520 1519 1518 1519 1519 1519 1520 1520 1520 1520 1520 1522 1524 1525 1525 1526 1527 1528 1531 1534 1536 1536 1537 1538 1538 1540 1541 1542 1542 1543 1544 1545 1545 1546 1546 1546 1546 1546 1546 1546 1546 1546 1546 1546 1547 1548 1548 1549 1549 1549 1549 1549 1548 1548 1548 1547 1547 1545 1544 1543 1542 1541 1539 1538
1522 1523 1523 1522 1522 1522 1522 1522 1522 1522 1522 1521 1521 1520 1520 1520 1520 1519 1519 1519 1519 1518 1517 1516 1516 1517 1517 1516 1516 1515 1517 1519 1520 1522 1523 1523 1523 1524 1526 1528 1531 1533 1534 1534 1534 1536 1537 1539 1540 1541 1542 1543 1543 1544 1544 1545 1545 1545 1545 1545 1545 1544 1544 1544 1545 1545 1546 1546 1546 1546 1546 1546 1546 1546 1545 1545 1545 1544 1542 1541 1540 1539 1538 1537 1535
1521 1521 1521 1520 1520 1520 1520 1520 1520 1519 1519 1519 1518 1518 1518 1518 1518 1517 1517 1517 1516 1516 1516 1514 1514 1515 1514 1513 1513 1513 1514 1516 1518 1520 1520 1520 1521 1522 1524 1526 1528 1530 1530 1531 1531 1533 1535 1537 1538 1539 1540 1541 1541 1542 1542 1543 1544 1545 1545 1545 1545 1544 1543 1543 1543 1543 1543 1544 1544 1543 1543 1543 1543 1542 1542 1542 1541 1541 1539 1538 1538 1537 1536 1535 1534
1518 1518 1518 1518 1518 1519 1519 1519 1518 1517 1517 1516 1516 1516 1516 1516 1516 1515 1515 1515 1514 1514 1514 1513 1513 1512 1512 1511 1510 1510 1512 1513 1514 1515 1517 1518 1519 1521 1523 1524 1525 1526 1527 1527 1528 1530 1533 1534 1536 1538 1538 1539 1540 1540 1541 1542 1543 1544 1544 1544 1544 1543 1541 1541 1541 1541 1541 1542 1541 1541 1541 1540 1540 1539 1538 1538 1538 1537 1537 1536 1535 1535 1534 1533 1532
1516 1516 1515 1516 1516 1517 1517 1516 1515 1514 1514 1514 1514 1513 1514 1514 1513 1513 1513 1512 1512 1512 1512 1511 1511 1510 1510 1509 1508 1508 1508 1509 1510 1511 1513 1516 1517 1519 1521 1522 1523 1524 1525 1525 1526 1528 1530 1532 1534 1535 1536 1537 1538 1538 1539 1540 1541 1541 1542 1542 1542 1541 1540 1539 1539 1539 1539 1539 1539 1540 1540 1539 1539 1538 1538 1538 1537 1537 1535 1534 1534 1534 1533 1532 1530
1513 1513 1513 1513 1513 1513 1513 1513 1512 1512 1511 1511 1511 1511 1511 1511 1511 1511 1510 1510 1509 1509 1509 1509 1508 1508 1508 1506 1505 1505 1505 1505 1506 1507 1510 1512 1513 1514 1516 1518 1520 1522 1523 1523 1524 1525 1527 1530 1532 1533 1534 1535 1535 1536 1537 1538 1538 1539 1539 1540 1540 1539 1539 1538 1537 1537 1538 1538 1539 1539 1539 1539 1538 1538 1538 1538 1537 1536 1535 1533 1532 1531 1529 1528 1527
1510 1510 1509 1509 1509 1509 1509 1509 1508 1508 1508 1508 1508 1507 1507 1508 1508 1508 1508 1507 1507 1506 1506 1506 1505 1504 1504 1503 1503 1503 1502 1502 1503 1504 1507 1509 1510 1512 1513 1515 1517 1522 1523 1523 1523 1523 1525 1528 1530 1531 1532 1532 1533 1534 1534 1535 1536 1536 1537 1537 1537 1537 1537 1536 1536 1536 1537 1537 1537 1537 1537 1537 1537 1536 1536 1535 1534 1533 1531 1529 1528 1526 1525 1524 1524
1506 1506 1505 1505 1505 1505 1505 1505 1505 1505 1505 1505 1504 1504 1504 1504 1504 1504 1505 1505 1504 1504 1503 1503 1502 1501 1501 1500 1500 1500 1499 1499 1501 1502 1504 1506 1508 1511 1513 1514 1516 1521 1523 1522 1521 1521 1524 1527 1528 1529 1530 1530 1531 1531 1532 1533 1534 1534 1534 1535 1535 1535 1535 1535 1535 1535 1535 1535 1535 1535 1535 1535 1535 1534 1533 1532 1530 1529 1527 1526 1525 1524 1523 1521 1521
1504 1503 1502 1502 1501 1501 1500 1500 1500 1501 1501 1501 1501 1500 1500 1500 1501 1501 1501 1501 1501 1500 1500 1500 1499 1499 1498 1498 1498 1497 1497 1497 1499 1499 1501 1504 1507 1511 1513 1514 1516 1520 1521 1520 1519 1521 1524 1525 1526 1527 1528 1528 1528 1529 1530 1531 1531 1532 1532 1533 1533 1533 1534 1534 1534 1534 1534 1534 1534 1534 1534 1533 1533 1532 1530 1528 1527 1526 1525 1525 1524 1522 1520 1518 1517
1503 1502 1501 1500 1499 1498 1497 1496 1496 1496 1497 1497 1497 1497 1497 1496 1497 1497 1497 1498 1497 1497 1497 1496 1496 1496 1496 1495 1495 1495 1494 1495 1496 1496 1499 1503 1507 1510 1512 1514 1517 1520 1520 1518 1519 1521 1523 1523 1524 1525 1526 1526 1527 1528 1528 1529 1530 1530 1531 1531 1532 1532 1532 1532 1532 1532 1532 1532 1532 1532 1532 1531 1530 1529 1527 1526 1525 1525 1524 1523 1521 1519 1517 1516 1514
1501 1500 1499 1498 1497 1496 1495 1494 1493 1492 1492 1492 1492 1493 1493 1493 1493 1492 1493 1494 1493 1493 1493 1493 1492 1493 1492 1491 1492 1492 1491 1491 1493 1494 1496 1500 1504 1508 1510 1513 1516 1518 1518 1518 1519 1520 1521 1521 1523 1523 1524 1524 1525 1526 1527 1527 1528 1529 1529 1530 1530 1531 1530 1530 1530 1529 1529 1530 1530 1530 1529 1528 1527 1526 1525 1524 1524 1523 1522 1520 1519 1517 1515 1513 1511
1499 1497 1496 1495 1494 1494 1493 1492 1490 1489 1489 1488 1488 1488 1489 1489 1489 1488 1489 1490 1490 1490 1490 1489 1489 1490 1490 1488 1489 1490 1489 1489 1490 1492 1494 1496 1500 1504 1507 1510 1513 1515 1516 1517 1518 1519 1520 1520 1521 1521 1522 1523 1524 1524 1525 1526 1527 1528 1528 1529 1529 1528 1528 1528 1527 1527 1527 1528 1527 1527 1526 1525 1525 1524 1524 1523 1522 1521 1519 1518 1516 1514 1513 1511 1510
1496 1494 1494 1492 1492 1491 1490 1489 1488 1487 1486 1485 1484 1484 1484 1485 1485 1485 1486 1486 1486 1486 1486 1485 1485 1487 1487 1485 1486 1488 1489 1488 1488 1490 1492 1494 1497 1500 1503 1507 1510 1512 1514 1516 1517 1518 1518 1519 1519 1519 1520 1521 1522 1523 1524 1525 1526 1526 1527 1528 1528 1528 1527 1526 1526 1526 1526 1525 1525 1524 1524 1524 1523 1523 1522 1522 1521 1519 1517 1515 1513 1512 1510 1509 1508
1493 1492 1491 1490 1489 1488 1487 1486 1486 1485 1484 1482 1481 1480 1480 1480 1480 1480 1481 1481 1481 1481 1482 1482 1482 1483 1483 1482 1483 1485 1487 1488 1488 1489 1491 1493 1496 1498 1501 1504 1507 1509 1512 1514 1515 1516 1516 1517 1517 1518 1518 1519 1521 1523 1524 1524 1524 1525 1525 1525 1526 1526 1525 1525 1525 1525 1524 1523 1523 1523 1522 1522 1522 1521 1520 1519 1517 1515 1514 1512 1511 1510 1508 1507 1506
1491 1489 1488 1487 1486 1485 1484 1483 1482 1482 1481 1480 1479 1477 1475 1475 1475 1476 1476 1476 1477 1478 1479 1479 1480 1480 1480 1480 1481 1482 1484 1486 1487 1488 1489 1492 1494 1497 1500 1503 1505 1507 1510 1512 1513 1514 1514 1515 1516 1516 1517 1518 1520 1522 1522 1523 1523 1524 1524 1524 1524 1523 1523 1524 1524 1523 1522 1522 1522 1522 1521 1521 1521 1520 1519 1517 1515 1513 1512 1510 1509 1508 1506 1505 1504
1488 1487 1486 1485 1483 1482 1481 1480 1479 1478 1478 1477 1476 1475 1473 1472 1472 1472 1472 1473 1474 1475 1475 1476 1477 1477 1478 1479 1481 1482 1482 1484 1485 1486 1486 1489 1492 1495 1499 1501 1504 1506 1508 1510 1511 1512 1513 1514 1515 1515 1516 1518 1519 1520 1520 1521 1522 1523 1523 1523 1523 1522 1522 1522 1522 1521 1521 1521 1520 1520 1520 1520 1519 1518 1517 1515 1513 1512 1510 1509 1507 1506 1504 1503 1502
1486 1485 1483 1482 1480 1479 1478 1476 1475 1475 1474 1473 1473 1472 1471 1470 1470 1469 1469 1469 1470 1471 1472 1473 1474 1475 1475 1477 1479 1481 1483 1485 1485 1485 1484 1487 1491 1494 1497 1500 1503 1505 1506 1508 1509 1511 1512 1513 1514 1514 1515 1517 1517 1517 1518 1519 1520 1521 1521 1522 1522 1522 1521 1521 1521 1521 1520 1519 1519 1519 1519 1519 1518 1517 1515 1513 1512 1510 1508 1507 1505 1504 1502 1501 1500
1483 1482 1481 1479 1478 1476 1475 1474 1472 1471 1470 1470 1470 1469 1469 1468 1468 1468 1467 1467 1466 1467 1467 1468 1469 1471 1472 1474 1475 1478 1481 1483 1485 1485 1486 1488 1491 1493 1495 1498 1501 1503 1504 1506 1508 1510 1511 1512 1513 1513 1515 1515 1515 1516 1517 1518 1518 1519 1520 1520 1521 1521 1521 1521 1521 1520 1519 1518 1518 1519 1518 1517 1516 1515 1513 1512 1510 1508 1507 1505 1503 1502 1501 1500 1498
1480 1479 1477 1476 1475 1473 1472 1470 1469 1468 1467 1467 1466 1466 1466 1466 1466 1465 1465 1465 1464 1464 1464 1463 1464 1467 1469 1471 1473 1475 1478 1480 1482 1485 1487 1489 1490 1492 1493 1496 1499 1502 1503 1505 1506 1508 1510 1511 1512 1513 1513 1514 1513 1514 1515 1516 1517 1518 1519 1519 1520 1520 1521 1521 1520 1519 1518 1517 1517 1517 1517 1516 1515 1513 1512 1510 1508 1506 1505 1504 1502 1501 1500 1498 1497
1478 1477 1475 1474 1472 1470 1469 1467 1466 1465 1464 1464 1464 1464 1463 1463 1463 1463 1463 1462 1462 1463 1462 1461 1461 1463 1466 1468 1471 1473 1475 1477 1480 1482 1485 1487 1488 1490 1492 1494 1497 1500 1502 1503 1505 1507 1509 1510 1511 1512 1512 1512 1512 1513 1514 1515 1517 1518 1518 1518 1519 1520 1520 1520 1518 1517 1516 1516 1516 1516 1515 1514 1513 1512 1510 1509 1507 1505 1504 1502 1501 1499 1498 1497 1495
1477 1475 1473 1472 1470 1468 1466 1464 1463 1462 1461 1461 1461 1461 1461 1461 1461 1460 1460 1460 1460 1461 1461 1460 1459 1461 1463 1465 1467 1470 1472 1475 1477 1479 1482 1484 1486 1489 1491 1492 1495 1497 1500 1502 1504 1506 1508 1509 1510 1510 1510 1510 1511 1513 1514 1515 1517 1517 1517 1517 1519 1519 1519 1518 1517 1516 1515 1515 1515 1515 1514 1513 1512 1510 1509 1507 1506 1504 1503 1501 1499 1498 1496 1495 1494
1475 1473 1471 1469 1467 1465 1463 1461 1460 1459 1459 1459 1459 1459 1459 1459 1459 1458 1458 1458 1458 1459 1459 1459 1458 1459 1460 1462 1465 1467 1469 1471 1474 1476 1478 1481 1484 1486 1489 1490 1492 1495 1498 1501 1504 1505 1506 1507 1508 1509 1509 1510 1511 1513 1514 1515 1517 1517 1516 1517 1518 1518 1517 1516 1515 1515 1514 1514 1514 1514 1513 1512 1510 1509 1508 1506 1504 1503 1501 1499 1498 1496 1495 1493 1492
1473 1471 1469 1466 1464 1461 1459 1458 1457 1457 1457 1457 1457 1457 1457 1457 1457 1456 1456 1457 1457 1457 1458 1458 1458 1458 1459 1461 1463 1465 1467 1469 1470 1472 1475 1478 1480 1483 1486 1489 1491 1493 1497 1500 1502 1504 1505 1505 1506 1507 1509 1510 1511 1513 1514 1515 1516 1516 1516 1517 1518 1517 1516 1516 1515 1514 1514 1514 1513 1513 1512 1510 1509 1507 1506 1504 1503 1501 1499 1497 1496 1495 1493 1492 1491
1472 1470 1467 1464 1462 1460 1458 1456 1455 1456 1456 1457 1457 1456 1456 1456 1455 1455 1455 1456 1456 1456 1457 1457 1457 1458 1459 1461 1462 1464 1466 1468 1469 1470 1472 1475 1478 1482 1485 1488 1490 1492 1495 1498 1500 1502 1503 1503 1505 1506 1508 1510 1511 1512 1513 1514 1515 1516 1516 1517 1517 1516 1515 1514 1514 1514 1513 1512 1512 1511 1510 1509 1507 1505 1504 1502 1500 1499 1498 1496 1495 1494 1493 1491 1490
1471 1469 1466 1464 1462 1460 1458 1456 1456 1456 1456 1456 1456 1456 1455 1455 1455 1455 1455 1455 1455 1456 1457 1457 1457 1458 1460 1461 1463 1464 1466 1467 1468 1469 1471 1474 1478 1482 1485 1487 1489 1491 1493 1496 1498 1500 1501 1502 1504 1506 1508 1509 1510 1511 1512 1514 1515 1516 1516 1516 1515 1514 1514 1513 1513 1512 1511 1511 1510 1510 1509 1507 1505 1504 1502 1501 1499 1498 1497 1496 1495 1493 1492 1490 1489
1471 1469 1466 1464 1463 1461 1459 1458 1457 1457 1456 1456 1456 1455 1454 1454 1454 1455 1455 1455 1455 1457 1457 1457 1457 1459 1460 1461 1463 1464 1465 1466 1468 1469 1472 1477 1480 1482 1484 1486 1488 1490 1492 1494 1496 1497 1498 1500 1503 1505 1507 1508 1509 1511 1512 1514 1514 1515 1515 1514 1513 1512 1512 1512 1511 1511 1510 1510 1509 1508 1507 1506 1504 1503 1502 1500 1499 1498 1497 1495 1494 1493 1491 1490 1488
1471 1469 1467 1465 1464 1462 1460 1459 1458 1457 1457 1456 1456 1455 1454 1454 1454 1455 1455 1455 1455 1457 1457 1457 1458 1459 1460 1461 1463 1464 1465 1466 1468 1470 1473 1476 1479 1481 1483 1485 1487 1489 1491 1493 1494 1496 1497 1500 1502 1504 1506 1508 1509 1511 1512 1513 1513 1513 1512 1512 1511 1510 1510 1510 1510 1509 1509 1509 1508 1507 1506 1505 1503 1502 1502 1500 1498 1497 1496 1495 1494 1492 1491 1489 1487
1471 1469 1467 1465 1464 1463 1461 1460 1459 1457 1457 1457 1456 1456 1455 1455 1455 1455 1455 1455 1457 1458 1458 1458 1459 1460 1461 1462 1463 1464 1465 1466 1469 1472 1474 1476 1479 1482 1484 1485 1487 1489 1491 1492 1493 1495 1497 1500 1502 1503 1505 1506 1507 1508 1509 1510 1510 1510 1510 1510 1509 1509 1508 1508 1508 1508 1508 1508 1507 1506 1505 1504 1503 1501 1500 1499 1497 1496 1495 1494 1493 1492 1490 1488 1487
1471 1469 1467 1466 1465 1464 1463 1461 1460 1459 1458 1457 1457 1457 1457 1456 1456 1456 1456 1457 1459 1459 1459 1459 1460 1461 1462 1463 1464 1465 1466 1467 1470 1473 1476 1479 1481 1483 1484 1486 1488 1490 1491 1492 1493 1495 1498 1501 1502 1503 1504 1505 1506 1506 1507 1507 1508 1508 1509 1508 1508 1507 1507 1507 1507 1507 1507 1507 1506 1505 1504 1503 1502 1500 1499 1498 1497 1496 1495 1494 1493 1491 1489 1488 1486
1471 1469 1468 1467 1466 1465 1464 1463 1462 1461 1460 1459 1458 1459 1458 1458 1457 1457 1458 1460 1460 1460 1460 1461 1461 1462 1463 1464 1466 1468 1469 1471 1473 1475 1478 1481 1483 1484 1485 1486 1489 1490 1491 1492 1494 1496 1499 1500 1502 1503 1504 1504 1505 1505 1506 1507 1507 1508 1507 1507 1507 1506 1506 1506 1506 1506 1506 1505 1505 1504 1503 1502 1501 1500 1498 1497 1497 1496 1495 1494 1492 1491 1489 1487 1486
1473 1470 1469 1468 1467 1467 1466 1465 1464 1463 1462 1461 1460 1460 1459 1459 1459 1459 1461 1461 1462 1461 1461 1462 1463 1463 1465 1467 1469 1470 1472 1474 1475 1477 1479 1481 1483 1484 1485 1487 1488 1489 1491 1493 1495 1497 1499 1500 1501 1502 1502 1502 1503 1504 1505 1506 1507 1507 1506 1506 1506 1506 1505 1505 1505 1505 1505 1504 1504 1503 1502 1501 1500 1499 1497 1497 1496 1496 1495 1494 1492 1490 1489 1487 1485
1475 1472 1470 1469 1469 1468 1468 1466 1465 1464 1464 1463 1462 1461 1461 1461 1462 1462 1463 1463 1464 1464 1464 1465 1466 1466 1467 1469 1471 1472 1473 1475 1477 1479 1480 1482 1483 1485 1486 1488 1488 1489 1491 1493 1495 1496 1498 1498 1499 1500 1501 1502 1503 1503 1504 1505 1506 1506 1505 1505 1505 1505 1505 1505 1504 1504 1504 1503 1503 1502 1501 1501 1500 1498 1497 1496 1496 1496 1494 1493 1491 1490 1488 1487 1485
1477 1474 1472 1471 1470 1469 1468 1467 1467 1466 1465 1464 1463 1462 1462 1463 1464 1464 1465 1465 1466 1466 1466 1466 1467 1468 1469 1470 1472 1473 1474 1476 1480 1482 1483 1483 1484 1486 1487 1488 1489 1490 1492 1492 1493 1495 1496 1496 1498 1499 1501 1502 1502 1503 1504 1504 1505 1505 1505 1505 1505 1505 1504 1504 1504 1503 1503 1503 1502 1502 1501 1500 1499 1498 1496 1496 1496 1495 1494 1492 1491 1490 1488 1487 1485
1478 1476 1474 1472 1471 1469 1468 1468 1467 1467 1466 1465 1465 1464 1464 1464 1464 1465 1466 1466 1467 1467 1467 1468 1469 1470 1471 1472 1474 1475 1477 1479 1482 1484 1484 1485 1486 1487 1488 1489 1490 1491 1492 1492 1493 1494 1495 1496 1497 1499 1500 1501 1502 1502 1503 1504 1504 1504 1504 1505 1504 1504 1504 1504 1504 1503 1503 1503 1502 1501 1501 1500 1498 1497 1496 1496 1496 1495 1494 1493 1491 1490 1488 1487 1486
1480 1479 1477 1475 1473 1471 1470 1469 1468 1468 1467 1467 1467 1466 1465 1465 1465 1466 1466 1467 1468 1469 1469 1470 1470 1472 1473 1475 1477 1478 1480 1481 1483 1484 1485 1486 1487 1487 1488 1489 1490 1491 1491 1492 1494 1495 1496 1498 1499 1500 1500 1501 1501 1502 1502 1503 1503 1504 1504 1504 1504 1504 1504 1504 1504 1504 1503 1503 1502 1502 1501 1499 1498 1497 1496 1496 1495 1494 1494 1493 1492 1490 1489 1487 1486